Location: Newark
(54.4333°N, 18.5500°E)
Time: 16:41:07
(UTC+00:00)

Envisat - Pass Details

Date: 10 December 2019
Orbit: 764 x 766 km, 98.1° (Epoch: 19 January)

Event Time Altitude Azimuth Distance (km) Brightness Sun altitude
Rises 15:58:16 0° 151° (SSE) 3,225 6.2 -12.9°
Reaches altitude 10° 16:00:35 10° 147° (SSE) 2,303 5.4 -13.2°
Maximum altitude 16:05:34 61° 69° (ENE) 875 3.0 -13.9°
Drops below altitude 10° 16:10:36 10° 350° (N) 2,319 5.4 -14.6°
Sets 16:12:56 0° 347° (NNW) 3,249 6.2 -14.9°
